TimeCDT,TemperatureF,Dew PointF,Humidity,Sea Level PressureIn,VisibilityMPH,Wind Direction,Wind SpeedMPH,Gust SpeedMPH,PrecipitationIn,Events,Conditions,WindDirDegrees,DateUTC
12:13 AM,3.2,-0.4,85,30.16,10.0,Calm,Calm,-,N/A,,Clear,0,2013-03-14 05:13:00
12:32 AM,3.2,1.4,92,30.15,10.0,Calm,Calm,-,N/A,,Clear,0,2013-03-14 05:32:00
12:53 AM,1.4,-0.4,92,30.15,10.0,Calm,Calm,-,N/A,,Clear,0,2013-03-14 05:53:00
1:13 AM,1.4,-0.4,92,30.15,10.0,Calm,Calm,-,N/A,,Clear,0,2013-03-14 06:13:00
1:32 AM,1.4,-2.2,85,30.14,10.0,Calm,Calm,-,N/A,,Clear,0,2013-03-14 06:32:00
1:53 AM,-0.4,-5.8,78,30.14,10.0,Calm,Calm,-,N/A,,Clear,0,2013-03-14 06:53:00
2:13 AM,-0.4,-4.0,85,30.14,10.0,Calm,Calm,-,N/A,,Clear,0,2013-03-14 07:13:00
2:32 AM,-0.4,-4.0,85,30.14,10.0,Calm,Calm,-,N/A,,Clear,0,2013-03-14 07:32:00
2:53 AM,-2.2,-5.8,85,30.14,10.0,Calm,Calm,-,N/A,,Clear,0,2013-03-14 07:53:00
3:13 AM,-2.2,-5.8,85,30.13,10.0,Calm,Calm,-,N/A,,Clear,0,2013-03-14 08:13:00
3:32 AM,-2.2,-5.8,85,30.13,10.0,Calm,Calm,-,N/A,,Clear,0,2013-03-14 08:32:00
3:53 AM,-4.0,-7.6,85,30.12,10.0,Calm,Calm,-,N/A,,Clear,0,2013-03-14 08:53:00
4:12 AM,-5.8,-7.6,92,30.11,10.0,Calm,Calm,-,N/A,,Clear,0,2013-03-14 09:12:00
4:33 AM,-4.0,-7.6,85,30.11,10.0,Calm,Calm,-,N/A,,Clear,0,2013-03-14 09:33:00
4:53 AM,-4.0,-7.6,85,30.11,10.0,Calm,Calm,-,N/A,,Clear,0,2013-03-14 09:53:00
5:12 AM,-5.8,-9.4,84,30.11,10.0,Calm,Calm,-,N/A,,Clear,0,2013-03-14 10:12:00
5:33 AM,-7.6,-11.2,84,30.12,10.0,Calm,Calm,-,N/A,,Clear,0,2013-03-14 10:33:00
5:53 AM,-5.8,-11.2,77,30.12,10.0,Calm,Calm,-,N/A,,Clear,0,2013-03-14 10:53:00
6:12 AM,-7.6,-11.2,84,30.12,10.0,Calm,Calm,-,N/A,,Clear,0,2013-03-14 11:12:00
6:33 AM,-7.6,-13.0,77,30.12,10.0,Calm,Calm,-,N/A,,Clear,0,2013-03-14 11:33:00
6:53 AM,-7.6,-11.2,84,30.12,10.0,Calm,Calm,-,N/A,,Clear,0,2013-03-14 11:53:00
7:12 AM,-7.6,-11.2,84,30.12,10.0,Calm,Calm,-,N/A,,Clear,0,2013-03-14 12:12:00
7:33 AM,-7.6,-11.2,84,30.11,10.0,Calm,Calm,-,N/A,,Scattered Clouds,0,2013-03-14 12:33:00
7:53 AM,-5.8,-9.4,84,30.09,10.0,Calm,Calm,-,N/A,,Scattered Clouds,0,2013-03-14 12:53:00
8:12 AM,-4.0,-9.4,78,30.09,10.0,Calm,Calm,-,N/A,,Clear,0,2013-03-14 13:12:00
8:33 AM,-0.4,-4.0,85,30.07,10.0,Calm,Calm,-,N/A,,Clear,0,2013-03-14 13:33:00
8:53 AM,6.8,1.4,79,30.07,10.0,Calm,Calm,-,N/A,,Clear,0,2013-03-14 13:53:00
9:12 AM,15.8,10.4,79,30.06,10.0,South,4.6,-,N/A,,Clear,170,2013-03-14 14:12:00
9:33 AM,21.2,12.2,68,30.07,10.0,South,3.5,-,N/A,,Scattered Clouds,190,2013-03-14 14:33:00
9:52 AM,21.2,12.2,68,30.07,10.0,SSW,8.1,-,N/A,,Overcast,210,2013-03-14 14:52:00
10:11 AM,23.0,12.2,63,30.05,10.0,SSW,5.8,-,N/A,,Mostly Cloudy,200,2013-03-14 15:11:00
10:33 AM,26.6,14.0,59,30.04,10.0,SSW,8.1,-,N/A,,Scattered Clouds,200,2013-03-14 15:33:00
10:53 AM,28.4,15.8,59,30.04,10.0,SSW,5.8,-,N/A,,Clear,200,2013-03-14 15:53:00
11:12 AM,28.4,15.8,59,30.04,10.0,SW,4.6,-,N/A,,Clear,230,2013-03-14 16:12:00
11:33 AM,32.0,15.8,51,30.05,10.0,WSW,6.9,-,N/A,,Scattered Clouds,250,2013-03-14 16:33:00
11:53 AM,32.0,17.6,55,30.05,10.0,WSW,9.2,-,N/A,,Mostly Cloudy,240,2013-03-14 16:53:00
12:12 PM,32.0,19.4,60,30.06,10.0,WSW,6.9,-,N/A,,Overcast,240,2013-03-14 17:12:00
12:33 PM,32.0,21.2,64,30.04,10.0,SW,10.4,-,N/A,,Overcast,230,2013-03-14 17:33:00
12:53 PM,32.0,21.2,64,30.03,10.0,SW,10.4,-,N/A,,Overcast,220,2013-03-14 17:53:00
1:12 PM,33.8,21.2,60,30.04,10.0,WSW,8.1,16.1,N/A,,Overcast,240,2013-03-14 18:12:00
1:33 PM,33.8,21.2,60,30.02,10.0,SW,12.7,17.3,N/A,,Overcast,230,2013-03-14 18:33:00
1:53 PM,33.8,21.2,60,29.99,10.0,WSW,9.2,-,N/A,,Overcast,240,2013-03-14 18:53:00
2:12 PM,35.6,23.0,60,29.99,10.0,SW,8.1,-,N/A,,Overcast,230,2013-03-14 19:12:00
2:33 PM,35.6,24.8,65,29.97,10.0,WSW,13.8,17.3,N/A,,Overcast,240,2013-03-14 19:33:00
2:53 PM,37.4,24.8,60,29.96,10.0,SSW,11.5,17.3,N/A,,Overcast,210,2013-03-14 19:53:00
3:13 PM,37.4,24.8,60,29.97,10.0,WSW,6.9,-,N/A,,Overcast,250,2013-03-14 20:13:00
3:33 PM,35.6,26.6,70,29.96,10.0,WSW,9.2,18.4,N/A,,Overcast,250,2013-03-14 20:33:00
3:53 PM,35.6,26.6,70,29.95,10.0,WSW,6.9,-,N/A,,Overcast,240,2013-03-14 20:53:00
4:13 PM,35.6,26.6,70,29.95,10.0,WSW,9.2,-,N/A,,Overcast,240,2013-03-14 21:13:00
4:33 PM,35.6,26.6,70,29.95,10.0,WSW,11.5,-,N/A,,Overcast,250,2013-03-14 21:33:00
4:53 PM,35.6,26.6,70,29.95,10.0,WSW,10.4,-,N/A,,Overcast,240,2013-03-14 21:53:00
5:13 PM,35.6,26.6,70,29.94,10.0,WSW,10.4,-,N/A,,Overcast,250,2013-03-14 22:13:00
5:32 PM,35.6,26.6,70,29.94,10.0,West,8.1,-,N/A,,Overcast,260,2013-03-14 22:32:00
5:53 PM,35.6,26.6,70,29.94,10.0,WSW,11.5,-,N/A,,Overcast,250,2013-03-14 22:53:00
6:13 PM,35.6,26.6,70,29.93,10.0,WSW,8.1,-,N/A,,Overcast,250,2013-03-14 23:13:00
6:32 PM,35.6,26.6,70,29.94,10.0,West,6.9,-,N/A,,Overcast,260,2013-03-14 23:32:00
6:53 PM,35.6,26.6,70,29.93,10.0,WSW,6.9,-,N/A,,Overcast,250,2013-03-14 23:53:00
7:13 PM,35.6,26.6,70,29.92,10.0,WSW,4.6,-,N/A,,Overcast,240,2013-03-15 00:13:00
7:32 PM,35.6,26.6,70,29.93,10.0,WSW,5.8,-,N/A,,Overcast,250,2013-03-15 00:32:00
7:53 PM,35.6,26.6,70,29.92,10.0,WSW,5.8,-,N/A,,Overcast,250,2013-03-15 00:53:00
8:13 PM,35.6,26.6,70,29.92,10.0,West,5.8,-,N/A,,Overcast,260,2013-03-15 01:13:00
8:32 PM,35.6,26.6,70,29.92,10.0,West,6.9,-,N/A,,Overcast,270,2013-03-15 01:32:00
8:53 PM,35.6,26.6,70,29.92,10.0,West,8.1,-,N/A,,Overcast,280,2013-03-15 01:53:00
9:13 PM,35.6,28.4,75,29.93,10.0,WNW,5.8,-,N/A,,Overcast,300,2013-03-15 02:13:00
9:32 PM,35.6,28.4,75,29.93,5.0,NW,8.1,-,N/A,Snow,Light Snow,320,2013-03-15 02:32:00
9:53 PM,33.8,28.4,81,29.94,5.0,NNW,8.1,-,N/A,Snow,Light Snow,340,2013-03-15 02:53:00
10:13 PM,32.0,28.4,87,29.94,3.0,NNW,9.2,-,N/A,Snow,Light Snow,330,2013-03-15 03:13:00
10:32 PM,30.2,28.4,93,29.94,7.0,North,5.8,-,N/A,Snow,Light Snow,350,2013-03-15 03:32:00
10:53 PM,30.2,26.6,86,29.95,7.0,North,4.6,-,N/A,Snow,Light Snow,350,2013-03-15 03:53:00
11:13 PM,30.2,24.8,80,29.94,10.0,NNW,9.2,-,N/A,,Overcast,330,2013-03-15 04:13:00
11:32 PM,30.2,24.8,80,29.94,10.0,NNW,6.9,-,N/A,,Overcast,340,2013-03-15 04:32:00
11:53 PM,28.4,24.8,86,29.94,10.0,NNW,10.4,17.3,N/A,,Overcast,340,2013-03-15 04:53:00